Retour au catalogue

FENGYUN 1C DEB

ActifSSO
NORAD 29815·DEBRIS·🇨🇳 China

Lancé May 10, 1999 depuis Taiyuan Satellite Launch Center

Loading…

Prochains Passages (prochaines 24 heures)

TLE

FraisSource: Space-Track

Époque: Sep 14, 2026, 18:09 UTC

1 29815U 99025DH  26257.75665023  .00003347  00000-0  49490-3 0  9992
2 29815  98.0533 265.6881 0177126 344.5069  15.0753 14.65770067 38922

Suivez FENGYUN 1C DEB en temps réel avec AllMySat

Download on the App Store